AFR57AU LFPG-LFRS

Flight info

Callsign AFR57AU
Flight time 0h 51m
Altitude 27000
Route LGL UT176 ROLEN UZ15 ARDOD A5 VALAX
Aircraft A320/M-SDE2E3FGIJ1RWY/HB1

Departure

Time 2026-05-08 20:19
Airport Charles de Gaulle International Airport (LFPG)

Arrival

Time 2026-05-08 21:10
Airport Nantes Atlantique Airport (LFRS)
Time Latitude Longitude Altitude Speed Heading
2026-05-08 19:44 49.00701 2.57356 355 ft 0 kts 159°
2026-05-08 19:45 49.00700 2.57357 355 ft 2 kts 159°
2026-05-08 19:46 49.00701 2.57356 355 ft 0 kts 159°
2026-05-08 20:07 49.00715 2.57348 359 ft 4 kts 163°
2026-05-08 20:08 49.00741 2.57342 354 ft 4 kts 190°
2026-05-08 20:08 49.00758 2.57355 354 ft 3 kts 261°
2026-05-08 20:08 49.00758 2.57360 354 ft 0 kts 266°
2026-05-08 20:10 49.00758 2.57353 354 ft 4 kts 266°
2026-05-08 20:10 49.00755 2.57284 357 ft 7 kts 267°
2026-05-08 20:10 49.00775 2.57225 361 ft 6 kts 325°
2026-05-08 20:10 49.00813 2.57210 359 ft 5 kts 347°
2026-05-08 20:11 49.00817 2.57208 354 ft 0 kts 347°
2026-05-08 20:11 49.00818 2.57208 362 ft 1 kts 347°
2026-05-08 20:11 49.00840 2.57190 361 ft 6 kts 322°
2026-05-08 20:12 49.00855 2.57105 357 ft 11 kts 265°
2026-05-08 20:12 49.00846 2.56954 358 ft 17 kts 266°
2026-05-08 20:12 49.00836 2.56769 356 ft 18 kts 265°
2026-05-08 20:12 49.00826 2.56576 361 ft 18 kts 264°
2026-05-08 20:13 49.00810 2.56380 354 ft 19 kts 262°
2026-05-08 20:13 49.00793 2.56196 355 ft 0 kts 263°
2026-05-08 20:13 49.00791 2.56175 358 ft 4 kts 263°
2026-05-08 20:14 49.00785 2.56109 360 ft 9 kts 262°
2026-05-08 20:14 49.00774 2.55994 360 ft 14 kts 261°
2026-05-08 20:14 49.00756 2.55810 358 ft 16 kts 263°
2026-05-08 20:14 49.00743 2.55657 358 ft 13 kts 262°
2026-05-08 20:15 49.00733 2.55541 363 ft 10 kts 263°
2026-05-08 20:15 49.00727 2.55441 359 ft 9 kts 264°
2026-05-08 20:15 49.00717 2.55352 359 ft 9 kts 251°
2026-05-08 20:15 49.00685 2.55279 356 ft 8 kts 225°
2026-05-08 20:16 49.00639 2.55251 354 ft 8 kts 179°
2026-05-08 20:16 49.00559 2.55282 357 ft 16 kts 165°
2026-05-08 20:16 49.00450 2.55328 362 ft 16 kts 164°
2026-05-08 20:16 49.00345 2.55373 360 ft 16 kts 164°
2026-05-08 20:17 49.00213 2.55430 360 ft 24 kts 164°
2026-05-08 20:17 49.00046 2.55504 354 ft 26 kts 164°
2026-05-08 20:17 48.99890 2.55595 356 ft 23 kts 142°
2026-05-08 20:17 48.99822 2.55800 354 ft 21 kts 106°
2026-05-08 20:18 48.99783 2.56002 358 ft 19 kts 129°
2026-05-08 20:18 48.99666 2.56037 362 ft 17 kts 174°
2026-05-08 20:18 48.99613 2.56072 357 ft 5 kts 95°
2026-05-08 20:18 48.99614 2.56081 361 ft 6 kts 85°
2026-05-08 20:19 48.99641 2.56588 362 ft 86 kts 85°
2026-05-08 20:19 48.99708 2.57831 355 ft 146 kts 85°
2026-05-08 20:19 48.99807 2.59537 720 ft 165 kts 83°
2026-05-08 20:19 48.99890 2.61289 1461 ft 167 kts 84°
2026-05-08 20:20 48.99966 2.63060 2206 ft 168 kts 84°
2026-05-08 20:20 49.00059 2.64856 2956 ft 166 kts 84°
2026-05-08 20:20 49.00152 2.66577 3655 ft 167 kts 84°
2026-05-08 20:20 49.00255 2.68452 4046 ft 187 kts 84°
2026-05-08 20:21 49.00373 2.70565 4380 ft 213 kts 85°
2026-05-08 20:21 49.00501 2.72930 4825 ft 237 kts 85°
2026-05-08 20:21 49.00635 2.75556 5339 ft 259 kts 87°
2026-05-08 20:21 49.00406 2.78317 6122 ft 268 kts 111°
2026-05-08 20:22 48.99382 2.80681 7017 ft 272 kts 138°
2026-05-08 20:22 48.97740 2.82072 7892 ft 276 kts 166°
2026-05-08 20:22 48.95811 2.82101 8774 ft 281 kts 195°
2026-05-08 20:22 48.94090 2.80704 9647 ft 285 kts 223°
2026-05-08 20:23 48.92951 2.78248 10438 ft 294 kts 242°
2026-05-08 20:23 48.91965 2.75330 10786 ft 317 kts 243°
2026-05-08 20:23 48.90984 2.72325 11445 ft 325 kts 243°
2026-05-08 20:23 48.89980 2.69221 12245 ft 328 kts 243°
2026-05-08 20:24 48.88964 2.66095 13068 ft 331 kts 243°
2026-05-08 20:24 48.87933 2.62949 13851 ft 334 kts 243°
2026-05-08 20:24 48.86892 2.59779 14601 ft 337 kts 245°
2026-05-08 20:24 48.86108 2.56403 15331 ft 340 kts 252°
2026-05-08 20:25 48.85416 2.52960 16023 ft 344 kts 253°
2026-05-08 20:25 48.84718 2.49461 16733 ft 347 kts 253°
2026-05-08 20:25 48.84020 2.45938 17399 ft 349 kts 253°
2026-05-08 20:25 48.83316 2.42394 18079 ft 352 kts 253°
2026-05-08 20:26 48.82604 2.38830 18726 ft 355 kts 253°
2026-05-08 20:26 48.81882 2.35231 19332 ft 358 kts 253°
2026-05-08 20:26 48.81149 2.31604 19932 ft 362 kts 253°
2026-05-08 20:26 48.80409 2.27943 20505 ft 365 kts 253°
2026-05-08 20:27 48.79659 2.24237 21064 ft 369 kts 254°
2026-05-08 20:27 48.78906 2.20505 21633 ft 372 kts 254°
2026-05-08 20:27 48.78141 2.16731 22176 ft 376 kts 255°
2026-05-08 20:27 48.77367 2.12922 22715 ft 380 kts 255°
2026-05-08 20:28 48.76584 2.09077 23239 ft 383 kts 255°
2026-05-08 20:28 48.75797 2.05211 23757 ft 387 kts 255°
2026-05-08 20:28 48.74995 2.01293 24243 ft 390 kts 255°
2026-05-08 20:28 48.74186 1.97353 24726 ft 393 kts 255°
2026-05-08 20:29 48.73368 1.93377 25183 ft 397 kts 255°
2026-05-08 20:29 48.72550 1.89401 25642 ft 399 kts 255°
2026-05-08 20:29 48.71715 1.85354 26095 ft 401 kts 256°
2026-05-08 20:29 48.70883 1.81322 26538 ft 403 kts 255°
2026-05-08 20:30 48.70041 1.77258 26932 ft 405 kts 256°
2026-05-08 20:30 48.69196 1.73188 27058 ft 403 kts 255°
2026-05-08 20:30 48.68371 1.69234 27080 ft 387 kts 255°
2026-05-08 20:30 48.67562 1.65381 27078 ft 381 kts 255°
2026-05-08 20:31 48.66765 1.61572 27073 ft 379 kts 256°
2026-05-08 20:31 48.65973 1.57777 27073 ft 378 kts 256°
2026-05-08 20:31 48.65180 1.53980 27073 ft 378 kts 256°
2026-05-08 20:31 48.64388 1.50199 27073 ft 378 kts 256°
2026-05-08 20:32 48.63592 1.46402 27074 ft 378 kts 255°
2026-05-08 20:32 48.62797 1.42616 27074 ft 378 kts 255°
2026-05-08 20:32 48.61999 1.38835 27073 ft 378 kts 255°
2026-05-08 20:32 48.61198 1.35046 27072 ft 378 kts 255°
2026-05-08 20:33 48.60400 1.31260 27070 ft 378 kts 255°
2026-05-08 20:33 48.59602 1.27490 27067 ft 378 kts 255°
2026-05-08 20:33 48.58794 1.23699 27066 ft 378 kts 255°
2026-05-08 20:33 48.57996 1.19969 27064 ft 378 kts 255°
2026-05-08 20:34 48.57178 1.16139 27061 ft 378 kts 255°
2026-05-08 20:34 48.56370 1.12362 27058 ft 378 kts 255°
2026-05-08 20:34 48.54761 1.04859 27052 ft 378 kts 255°
2026-05-08 20:35 48.53948 1.01082 27049 ft 378 kts 254°
2026-05-08 20:35 48.53133 0.97308 27047 ft 379 kts 254°
2026-05-08 20:35 48.52318 0.93534 27046 ft 379 kts 254°
2026-05-08 20:35 48.51503 0.89747 27046 ft 379 kts 254°
2026-05-08 20:36 48.50686 0.85957 27049 ft 380 kts 254°
2026-05-08 20:36 48.49866 0.82171 27048 ft 380 kts 254°
2026-05-08 20:36 48.49041 0.78380 27048 ft 381 kts 254°
2026-05-08 20:36 48.48211 0.74588 27049 ft 381 kts 253°
2026-05-08 20:37 48.47380 0.70800 27049 ft 381 kts 253°
2026-05-08 20:37 48.46553 0.67018 27048 ft 381 kts 253°
2026-05-08 20:37 48.45725 0.63225 27045 ft 381 kts 253°
2026-05-08 20:37 48.44898 0.59442 27044 ft 381 kts 253°
2026-05-08 20:38 48.44066 0.55645 27042 ft 381 kts 253°
2026-05-08 20:38 48.43232 0.51863 27043 ft 381 kts 253°
2026-05-08 20:38 48.42394 0.48078 27042 ft 381 kts 253°
2026-05-08 20:38 48.41554 0.44291 27041 ft 381 kts 253°
2026-05-08 20:39 48.40715 0.40506 27041 ft 381 kts 253°
2026-05-08 20:39 48.39877 0.36726 27037 ft 381 kts 253°
2026-05-08 20:39 48.39034 0.32937 27035 ft 381 kts 253°
2026-05-08 20:39 48.38191 0.29155 27034 ft 381 kts 253°
2026-05-08 20:40 48.37348 0.25382 27031 ft 381 kts 252°
2026-05-08 20:40 48.36503 0.21604 27026 ft 381 kts 252°
2026-05-08 20:40 48.35657 0.17830 27023 ft 381 kts 252°
2026-05-08 20:40 48.34810 0.14052 27020 ft 381 kts 252°
2026-05-08 20:41 48.33961 0.10270 27019 ft 382 kts 252°
2026-05-08 20:41 48.33112 0.06497 27019 ft 382 kts 252°
2026-05-08 20:41 48.32262 0.02712 27020 ft 382 kts 252°
2026-05-08 20:41 48.31411 -0.01073 27018 ft 383 kts 252°
2026-05-08 20:42 48.30556 -0.04858 27013 ft 383 kts 251°
2026-05-08 20:42 48.29700 -0.08630 27008 ft 384 kts 251°
2026-05-08 20:42 48.28831 -0.12438 27005 ft 384 kts 250°
2026-05-08 20:42 48.27973 -0.16183 27005 ft 385 kts 250°
2026-05-08 20:43 48.27098 -0.19980 27002 ft 385 kts 248°
2026-05-08 20:43 48.25932 -0.23583 27003 ft 384 kts 237°
2026-05-08 20:43 48.24344 -0.26793 27003 ft 384 kts 227°
2026-05-08 20:43 48.22391 -0.29519 27001 ft 384 kts 219°
2026-05-08 20:44 48.20337 -0.32074 26999 ft 384 kts 219°
2026-05-08 20:44 48.18285 -0.34638 26999 ft 384 kts 219°
2026-05-08 20:44 48.16234 -0.37205 26999 ft 384 kts 219°
2026-05-08 20:44 48.14189 -0.39766 26997 ft 385 kts 219°
2026-05-08 20:45 48.12128 -0.42344 26998 ft 385 kts 219°
2026-05-08 20:45 48.10770 -0.44040 26997 ft 385 kts 219°
2026-05-08 20:45 48.08724 -0.46592 26780 ft 379 kts 219°
2026-05-08 20:45 48.06720 -0.49089 26534 ft 375 kts 219°
2026-05-08 20:46 48.04710 -0.51598 26280 ft 373 kts 219°
2026-05-08 20:46 48.02730 -0.54071 26012 ft 368 kts 219°
2026-05-08 20:46 48.00775 -0.56505 25584 ft 364 kts 219°
2026-05-08 20:46 47.98832 -0.58918 25148 ft 361 kts 219°
2026-05-08 20:47 47.96908 -0.61303 24696 ft 359 kts 218°
2026-05-08 20:47 47.94994 -0.63674 24240 ft 356 kts 217°
2026-05-08 20:47 47.93100 -0.66023 23775 ft 353 kts 217°
2026-05-08 20:47 47.91213 -0.68358 23317 ft 351 kts 217°
2026-05-08 20:48 47.89336 -0.70673 22853 ft 349 kts 217°
2026-05-08 20:48 47.87469 -0.72978 22401 ft 348 kts 218°
2026-05-08 20:48 47.85611 -0.75268 21946 ft 346 kts 218°
2026-05-08 20:48 47.83767 -0.77541 21506 ft 344 kts 218°
2026-05-08 20:49 47.81926 -0.79806 21064 ft 342 kts 218°
2026-05-08 20:49 47.80097 -0.82055 20627 ft 340 kts 218°
2026-05-08 20:49 47.78286 -0.84280 20189 ft 338 kts 218°
2026-05-08 20:49 47.76470 -0.86507 19748 ft 336 kts 218°
2026-05-08 20:50 47.74694 -0.88686 19328 ft 334 kts 218°
2026-05-08 20:50 47.72906 -0.90873 18906 ft 332 kts 218°
2026-05-08 20:50 47.71104 -0.93074 18473 ft 330 kts 218°
2026-05-08 20:50 47.69357 -0.95201 18055 ft 328 kts 218°
2026-05-08 20:51 47.67597 -0.97344 17635 ft 326 kts 218°
2026-05-08 20:51 47.65844 -0.99473 17214 ft 325 kts 218°
2026-05-08 20:51 47.64100 -1.01584 16806 ft 323 kts 218°
2026-05-08 20:51 47.62365 -1.03679 16406 ft 321 kts 217°
2026-05-08 20:52 47.60452 -1.05309 16012 ft 317 kts 199°
2026-05-08 20:52 47.58369 -1.06341 15636 ft 314 kts 200°
2026-05-08 20:52 47.56335 -1.07494 15261 ft 312 kts 201°
2026-05-08 20:52 47.54320 -1.08666 14883 ft 311 kts 201°
2026-05-08 20:53 47.52312 -1.09835 14508 ft 309 kts 201°
2026-05-08 20:53 47.50317 -1.10994 14129 ft 307 kts 201°
2026-05-08 20:53 47.48331 -1.12148 13752 ft 306 kts 201°
2026-05-08 20:53 47.46353 -1.13295 13377 ft 304 kts 201°
2026-05-08 20:54 47.44388 -1.14434 13000 ft 303 kts 201°
2026-05-08 20:54 47.42432 -1.15567 12629 ft 301 kts 201°
2026-05-08 20:54 47.40484 -1.16695 12244 ft 300 kts 201°
2026-05-08 20:54 47.38548 -1.17815 11870 ft 298 kts 201°
2026-05-08 20:55 47.36622 -1.18931 11497 ft 297 kts 201°
2026-05-08 20:55 47.34703 -1.20048 11120 ft 295 kts 201°
2026-05-08 20:55 47.32802 -1.21164 10745 ft 294 kts 201°
2026-05-08 20:55 47.30899 -1.22286 10371 ft 293 kts 201°
2026-05-08 20:56 47.29015 -1.23403 9991 ft 291 kts 201°
2026-05-08 20:56 47.27139 -1.24522 9607 ft 289 kts 201°
2026-05-08 20:56 47.25286 -1.25648 9232 ft 287 kts 203°
2026-05-08 20:56 47.23563 -1.27116 8860 ft 286 kts 211°
2026-05-08 20:57 47.21908 -1.28723 8486 ft 284 kts 212°
2026-05-08 20:57 47.20275 -1.30330 8106 ft 282 kts 212°
2026-05-08 20:57 47.18651 -1.31932 7741 ft 281 kts 212°
2026-05-08 20:57 47.17035 -1.33529 7455 ft 279 kts 212°
2026-05-08 20:58 47.15429 -1.35114 7203 ft 278 kts 212°
2026-05-08 20:58 47.13826 -1.36700 6956 ft 278 kts 212°
2026-05-08 20:58 47.12228 -1.38281 6702 ft 275 kts 212°
2026-05-08 20:58 47.10672 -1.39832 6442 ft 266 kts 212°
2026-05-08 20:59 47.09168 -1.41338 6234 ft 257 kts 212°
2026-05-08 20:59 47.07719 -1.42792 6033 ft 248 kts 212°
2026-05-08 20:59 47.06319 -1.44201 5834 ft 240 kts 212°
2026-05-08 20:59 47.04966 -1.45567 5633 ft 233 kts 212°
2026-05-08 21:00 47.03639 -1.46906 5446 ft 231 kts 212°
2026-05-08 21:00 47.02319 -1.48240 5291 ft 230 kts 212°
2026-05-08 21:00 47.01002 -1.49570 5140 ft 230 kts 212°
2026-05-08 21:00 46.99689 -1.50905 4971 ft 230 kts 212°
2026-05-08 21:01 46.98377 -1.52242 4796 ft 230 kts 212°
2026-05-08 21:01 46.97067 -1.53576 4611 ft 229 kts 212°
2026-05-08 21:01 46.95760 -1.54907 4446 ft 229 kts 212°
2026-05-08 21:01 46.94451 -1.56239 4268 ft 229 kts 212°
2026-05-08 21:02 46.93165 -1.57546 4115 ft 226 kts 212°
2026-05-08 21:02 46.91902 -1.58832 3971 ft 217 kts 212°
2026-05-08 21:02 46.90688 -1.60071 3818 ft 209 kts 212°
2026-05-08 21:02 46.89569 -1.61374 3656 ft 204 kts 230°
2026-05-08 21:03 46.89077 -1.63269 3551 ft 203 kts 268°
2026-05-08 21:03 46.89317 -1.65296 3415 ft 203 kts 281°
2026-05-08 21:03 46.89530 -1.67327 3255 ft 203 kts 277°
2026-05-08 21:03 46.89695 -1.69388 3106 ft 203 kts 276°
2026-05-08 21:04 46.89942 -1.71409 3006 ft 202 kts 294°
2026-05-08 21:04 46.90836 -1.72905 2999 ft 197 kts 334°
2026-05-08 21:04 46.92115 -1.73569 3010 ft 195 kts 349°
2026-05-08 21:04 46.93433 -1.74024 3010 ft 194 kts 351°
2026-05-08 21:05 46.94754 -1.74452 3004 ft 195 kts 351°
2026-05-08 21:05 46.96078 -1.74837 3001 ft 193 kts 359°
2026-05-08 21:05 46.97384 -1.74613 3003 ft 188 kts 23°
2026-05-08 21:05 46.98552 -1.73792 3010 ft 186 kts 31°
2026-05-08 21:06 46.99703 -1.72919 3007 ft 185 kts 32°
2026-05-08 21:06 47.00840 -1.72060 2928 ft 181 kts 32°
2026-05-08 21:06 47.01926 -1.71239 2747 ft 172 kts 32°
2026-05-08 21:06 47.02965 -1.70453 2527 ft 163 kts 31°
2026-05-08 21:07 47.03948 -1.69709 2332 ft 156 kts 30°
2026-05-08 21:07 47.04888 -1.68996 2129 ft 147 kts 30°
2026-05-08 21:07 47.05761 -1.68336 1960 ft 137 kts 30°
2026-05-08 21:07 47.06598 -1.67700 1766 ft 134 kts 30°
2026-05-08 21:08 47.07422 -1.67074 1587 ft 133 kts 28°
2026-05-08 21:08 47.08243 -1.66451 1411 ft 133 kts 28°
2026-05-08 21:08 47.09064 -1.65828 1246 ft 133 kts 27°
2026-05-08 21:08 47.09890 -1.65201 1059 ft 133 kts 27°
2026-05-08 21:09 47.10711 -1.64578 883 ft 133 kts 27°
2026-05-08 21:09 47.11534 -1.63954 704 ft 133 kts 27°
2026-05-08 21:09 47.12357 -1.63336 521 ft 133 kts 27°
2026-05-08 21:09 47.13177 -1.62708 316 ft 133 kts 28°
2026-05-08 21:10 47.13996 -1.62084 165 ft 133 kts 27°
2026-05-08 21:10 47.14774 -1.61487 92 ft 112 kts 27°
2026-05-08 21:10 47.15316 -1.61070 90 ft 63 kts 27°
2026-05-08 21:10 47.15620 -1.60840 87 ft 35 kts 26°
2026-05-08 21:11 47.15660 -1.60694 87 ft 15 kts 117°
2026-05-08 21:11 47.15636 -1.60574 89 ft 11 kts 59°
2026-05-08 21:11 47.15696 -1.60517 91 ft 10 kts 27°
2026-05-08 21:11 47.15721 -1.60444 90 ft 8 kts 98°
2026-05-08 21:12 47.15693 -1.60387 91 ft 7 kts 133°
2026-05-08 21:12 47.15668 -1.60340 90 ft 5 kts 101°
2026-05-08 21:12 47.15684 -1.60309 90 ft 3 kts 42°
2026-05-08 21:12 47.15700 -1.60287 90 ft 3 kts 44°
2026-05-08 21:13 47.15712 -1.60270 90 ft 2 kts 44°
2026-05-08 21:13 47.15717 -1.60263 90 ft 0 kts 44°